Flag for Ireland

Past Weather in Galway, Ireland — Yesterday and Last 2 Weeks

Now
63 °F

Scattered clouds.


Feels Like: 63 °F
Forecast: 61 / 52 °F
Wind: 6 mph from Southwest

Location: Shannon Airport

Current Time: Jul 11, 2020 at 2:51:15 pm

Latest Report: Jul 11, 2020 at 2:00 pm


Visibility: N/A

Pressure: 30.36 "Hg

Humidity: 52%

Dew Point: 45 °F

Location of GalwayLocation

Past Weather in Galway — Graph

°F

Galway Temperature Yesterday

Maximum temperature yesterday: 63 °F (at 3:30 pm)
Minimum temperature yesterday: 48 °F (at 4:00 am)
Average temperature yesterday: 56 °F

High & Low Weather Summary for the Past Weeks

 TemperatureHumidityPressure
High64 °F (Jul 2, 3:30 pm)100% (Jun 27, 5:30 am)30.36 "Hg (Jun 27, 5:30 am)
Low48 °F (Jul 10, 4:00 am)49% (Jul 6, 5:30 pm)29.42 "Hg (Jun 27, 3:30 am)
Average57 °F83%29.86 "Hg
* Reported Jun 26 1:00 pm — Jul 11 1:30 pm, Galway. Weather by CustomWeather, © 2020

Note: Actual official high and low records may vary slightly from our data, if they occured in-between our weather recording intervals... More about our weather records

Galway Weather History for the Previous 24 Hours

Scroll right to see more
 ConditionsComfort  
Time TempWeatherWind HumidityBarometerVisibility
1:30 pm
Sat, Jul 11
63 °FPartly sunny.3 mph52%30.36 "HgN/A
1:00 pm61 °FScattered clouds.5 mph55%30.36 "HgN/A
12:30 pm61 °FScattered clouds.5 mph55%30.36 "HgN/A
12:00 pm61 °FScattered clouds.6 mph59%30.36 "HgN/A
11:30 am59 °FPassing clouds.7 mph55%30.36 "HgN/A
11:00 am59 °FPassing clouds.5 mph59%30.36 "HgN/A
10:30 am59 °FPassing clouds.2 mph59%30.36 "HgN/A
10:00 am59 °FPassing clouds.3 mph63%30.36 "HgN/A
9:30 am55 °FPassing clouds.2 mph72%30.36 "HgN/A
9:00 am55 °FPassing clouds.6 mph82%30.36 "HgN/A
8:30 am57 °FPassing clouds.2 mph72%30.36 "HgN/A
8:00 am54 °FScattered clouds.1 mph82%30.36 "HgN/A
7:30 am52 °FScattered clouds.1 mph94%30.36 "HgN/A
7:00 am50 °FPartly sunny.2 mph94%30.36 "HgN/A
6:30 am50 °FScattered clouds.2 mph94%30.36 "HgN/A
6:00 am50 °FPartly sunny.5 mph94%30.36 "HgN/A
5:30 am48 °FScattered clouds.2 mph94%30.33 "HgN/A
5:00 am48 °FPassing clouds.1 mph94%30.33 "HgN/A
4:30 am50 °FPassing clouds.1 mph88%30.33 "HgN/A
4:00 am48 °FPartly cloudy.1 mph94%30.33 "HgN/A
3:30 am48 °FPassing clouds.3 mph94%30.33 "HgN/A
3:00 am50 °FPassing clouds.3 mph88%30.33 "HgN/A
2:30 am52 °FPassing clouds.10 mph88%30.33 "HgN/A
2:00 am54 °FPassing clouds.7 mph88%30.36 "HgN/A
1:30 am54 °FPartly cloudy.7 mph88%30.36 "HgN/A
1:00 am54 °FPartly cloudy.5 mph88%30.36 "HgN/A
12:30 am54 °FPassing clouds.6 mph82%30.36 "HgN/A
12:00 am54 °FPassing clouds.6 mph82%30.33 "HgN/A
11:30 pm
Fri, Jul 10
54 °FPassing clouds.6 mph82%30.33 "HgN/A
11:00 pm55 °FPassing clouds.7 mph77%30.33 "HgN/A
10:30 pm55 °FPassing clouds.7 mph77%30.33 "HgN/A
10:00 pm55 °FPassing clouds.8 mph77%30.30 "HgN/A
9:30 pm57 °FPartly sunny.12 mph77%30.30 "HgN/A
9:00 pm57 °FPartly sunny.9 mph72%30.30 "HgN/A
8:30 pm59 °FPassing clouds.8 mph63%30.30 "HgN/A
8:00 pm59 °FScattered clouds.12 mph63%30.30 "HgN/A
7:30 pm59 °FScattered clouds.14 mph63%30.30 "HgN/A
7:00 pm59 °FScattered clouds.15 mph63%30.30 "HgN/A
6:30 pm61 °FPartly sunny.15 mph59%30.27 "HgN/A
6:00 pm61 °FSunny.10 mph59%30.27 "Hg10 mi
5:30 pm61 °FPassing clouds.13 mph55%30.27 "HgN/A
5:00 pm61 °FPassing clouds.12 mph55%30.27 "HgN/A
4:30 pm63 °FScattered clouds.14 mph56%30.27 "HgN/A
4:00 pm63 °FPassing clouds.12 mph56%30.27 "HgN/A
3:30 pm63 °FScattered clouds.15 mph56%30.27 "HgN/A
3:00 pm59 °FBroken clouds.16 mph63%30.27 "HgN/A
2:30 pm61 °FBroken clouds.14 mph59%30.27 "HgN/A
2:00 pm61 °FPartly sunny.13 mph55%30.24 "HgN/A
Weather by CustomWeather, © 2020

See weather overview